Location: Ferma
(41.9500°N, 44.5167°E)
Time: 11:31:47
(UTC+00:00)

Cosmos 1269 Rocket - Pass Details

Date: 05 June 2022
Orbit: 773 x 778 km, 74.1° (Epoch: 01 July)

Event Time Altitude Azimuth Distance (km) Brightness Sun altitude
Rises 21:49:20 0° 327° (NNW) 3,257 7.9 -24.5°
Reaches altitude 10° 21:52:08 10° 313° (NW) 2,325 6.8 -24.3°
Enters shadow 21:55:49 23° 269° (W) 1,601 5.5 -24.2°
